DELTA 1 DEB, 10647

Orbit data source: Space-Track

DELTA 1 DEB, 10647 is space debris in SSO originally from a launch on Thu, 29 Jul 1976 UTC launched from the Air Force Western Test Range (AFWTR). Debris objects in space refer to the collection of defunct objects orbiting the Earth. Examples of debris include non-operational satellites, rocket bodies, and fragments generated from explosions, collisions, or faulty payload assembly.

Loading next visibility...
Identifier
10647, 1976-077H
Orbit
SSO
Country
Flag of USUS
Related business
Manufacturer
Unknown
Mission
Spacecraft
Bus & Motor
Unknown
Mass
Unknown
Launch date (UTC)
1976-07-29 (50 years ago)
Launch vehicle
Unknown
Launch site
Air Force Western Test Range (AFWTR)
Object type
Payload
Rocket body
Debris
Shape & HBR
Unknown shape, 0.1 m
Radar Cross Section
Medium (>0.1 m² and <1 m²)

Expand to show TLE details & history
Last TLE update: 1 day ago

TLE from 1 day ago
0 DELTA 1 DEB
1 10647U 76077H   26255.14820814  .00000012  00000-0  59465-3 0  9998
2 10647 102.7605 352.2585 0164891 339.1904 136.2450 12.11312149216756
Epoch: 2026-09-12T03:33Z
TLE epoch observation values (Epoch: 2026-09-12T03:33:25.183Z)
Latitude
60.67904°
Longitude
151.40182°
Altitude
1,737.143 km
Speed
6.973 km/s
True Right ascension
13h 03m 40s
True Declination
60° 32' 59"
Sunlit
Object was in daylight at epoch
Visualization orbit readout
Latitude
Unknown
Longitude
Unknown
Altitude
Unknown
Speed
Unknown
Apparent Right ascension
Unknown
Apparent Declination
Unknown
Sunlit
N/A
Visualization observer readout
Local Sidereal Time
01:49:52
Azimuth
Unknown
Elevation
Unknown
Doppler factor
Unknown
Orbital elements
Apogee altitude
1,760.284 km
Perigee altitude
1,496.247 km
Semi-major axis
8,006.402 km
Eccentricity
0.01649
Inclination
102.7605°
RAAN
352.2585°
Arg. of periapsis
339.1904°
True anomaly
137.53245°
Mean anomaly
136.245°
Eccentric anomaly
136.89064°
Mean motion
3.02961 °/min
Orbital period
118.83 mins
BSTAR
0.00059465
Loading maneuver chart data...
Computing Atmospheric mass density...
Loading historical data...
Loading historical data...
Loading historical data...
Loading historical data...
Loading historical data...
Loading historical data...
Loading historical data...

Documentation

Showing up to 5 results
|